Houlton, ME

3:36 AM EDT on September 16, 2019 (GMT -0400)
Houlton International

Weather History for KHUL - July, 2019

Change the Weather History Date:

Monday, July 22, 2019

  Actual Average Record
Temperature  
Mean Temperature 65 °F 66 °F  
Max Temperature 75 °F 78 °F 90 °F (1998)
Min Temperature 54 °F 54 °F 37 °F (1992)
Degree Days  
Heating Degree Days 0 2  
Month to date heating degree days 20 47  
Since 1 June heating degree days 216 228  
Since 1 July heating degree days 20 47  
Cooling Degree Days 0 3  
Month to date cooling degree days 71 64  
Year to date cooling degree days 80 103  
Since 1 June cooling degree days 80 99  
Growing Degree Days 14 (Base 50)    
Moisture  
Dew Point 56 °F    
Average Humidity 73    
Maximum Humidity 100    
Minimum Humidity 46    
Precipitation  
Precipitation 0.00 in 0.12 in 1.52 in (1978)
Month to date precipitation 1.75 2.58  
Year to date precipitation 20.94 20.86  
Sea Level Pressure  
Sea Level Pressure 29.82 in    
Wind  
Wind Speed 4 mph (NW)    
Max Wind Speed 12 mph    
Max Gust Speed 16 mph    
Visibility 5 miles    
Events Fog    
T = Trace of Precipitation, MM = Missing Value Source: NWS Daily Summary

Daily Weather History Graph

Daily Weather History Graph

Search for Another Location

Airport or City:

Astronomy

Jul. 22, 2019 Rise Set
Actual Time 5:01 AM EDT 8:13 PM EDT
Civil Twilight 4:25 AM EDT 8:49 PM EDT
Nautical Twilight 3:38 AM EDT 9:35 PM EDT
Astronomical Twilight 2:40 AM EDT 10:33 PM EDT
Moon 11:14 PM EDT (7/22) 10:30 AM EDT (7/22)
Length of Visible Light 16h 23m
Length of Day
15h 11m
Waning Gibbous, 72% of the Moon is Illuminated
Jul 22
Waning Gibbous
Jul 24
Last Quarter
Jul 31
New
Aug 7
First Quarter
Aug 15
Full

Hourly Weather History & Observations

Time (EDT) Temp. Dew Point Humidity Pressure Visibility Wind Dir Wind Speed Gust Speed Precip Events Conditions
12:00 AM 63.0 °F 61.0 °F 93% 29.76 in 3.0 mi Calm Calm - N/A   Overcast
12:53 AM 63.0 °F 62.1 °F 97% 29.76 in 8.0 mi Calm Calm - N/A   Overcast
1:25 AM 61.0 °F 60.1 °F 97% 29.77 in 1.8 mi Calm Calm - N/A   Mostly Cloudy
1:34 AM 61.0 °F 60.1 °F 97% 29.77 in 4.0 mi Calm Calm - N/A   Mostly Cloudy
1:51 AM 60.8 °F 60.8 °F 100% 29.77 in 1.0 mi Calm Calm - N/A   Mostly Cloudy
1:53 AM 61.0 °F 60.1 °F 97% 29.77 in 1.0 mi Calm Calm - N/A   Mostly Cloudy
1:59 AM 61.0 °F 60.1 °F 97% 29.77 in 2.0 mi Calm Calm - N/A   Mostly Cloudy
2:07 AM 61.0 °F 60.1 °F 97% 29.77 in 8.0 mi Calm Calm - N/A   Mostly Cloudy
2:18 AM 60.1 °F 59.0 °F 96% 29.78 in 1.5 mi Calm Calm - N/A   Mostly Cloudy
2:29 AM 60.1 °F 59.0 °F 96% 29.78 in 3.0 mi Calm Calm - N/A   Mostly Cloudy
2:53 AM 61.0 °F 59.0 °F 93% 29.79 in 8.0 mi Calm Calm - N/A   Overcast
3:08 AM 60.1 °F 57.9 °F 93% 29.79 in 1.8 mi Calm Calm - N/A   Mostly Cloudy
3:16 AM 60.1 °F 57.9 °F 93% 29.79 in 0.8 mi Calm Calm - N/A   Scattered Clouds
3:32 AM 59.0 °F 57.9 °F 96% 29.79 in 1.8 mi Calm Calm - N/A   Mostly Cloudy
3:43 AM 57.9 °F 57.0 °F 97% 29.79 in 1.8 mi Calm Calm - N/A   Scattered Clouds
3:46 AM 57.0 °F 55.9 °F 96% 29.79 in 0.8 mi Calm Calm - N/A   Scattered Clouds
3:53 AM 57.0 °F 55.9 °F 96% 29.80 in 0.8 mi Calm Calm - N/A   Scattered Clouds
3:56 AM 57.9 °F 55.9 °F 93% 29.80 in 1.5 mi Calm Calm - N/A   Scattered Clouds
3:58 AM 57.9 °F 57.0 °F 97% 29.80 in 3.0 mi Calm Calm - N/A   Partly Cloudy
4:05 AM 57.0 °F 55.9 °F 96% 29.80 in 1.0 mi Calm Calm - N/A   Mist
4:12 AM 57.0 °F 55.9 °F 96% 29.80 in 0.5 mi Calm Calm - N/A Fog Fog
4:36 AM 55.9 °F 55.0 °F 97% 29.81 in 1.0 mi Calm Calm - N/A   Clear
4:53 AM 55.0 °F 54.0 °F 96% 29.81 in 1.0 mi Calm Calm - N/A   Mist
5:00 AM 55.0 °F 54.0 °F 96% 29.82 in 0.5 mi Calm Calm - N/A Fog Fog
5:09 AM 55.9 °F 54.0 °F 93% 29.82 in 1.5 mi Calm Calm - N/A   Clear
5:14 AM 55.9 °F 54.0 °F 93% 29.82 in 0.8 mi Calm Calm - N/A   Clear
5:28 AM 55.9 °F 55.0 °F 97% 29.82 in 1.8 mi Calm Calm - N/A   Clear
5:30 AM 55.9 °F 55.0 °F 97% 29.82 in 3.0 mi Calm Calm - N/A   Clear
5:53 AM 57.0 °F 55.9 °F 96% 29.83 in 8.0 mi Calm Calm - N/A   Scattered Clouds
6:53 AM 62.1 °F 57.9 °F 86% 29.85 in 10.0 mi Calm Calm - N/A   Clear
7:53 AM 64.9 °F 57.0 °F 75% 29.86 in 10.0 mi North 9.2 mph - N/A   Clear
8:53 AM 66.9 °F 55.0 °F 66% 29.86 in 10.0 mi North 8.1 mph - N/A   Clear
9:53 AM 69.1 °F 54.0 °F 58% 29.86 in 10.0 mi NNW 9.2 mph - N/A   Clear
10:53 AM 70.0 °F 53.1 °F 55% 29.86 in 10.0 mi North 10.4 mph - N/A   Clear
11:53 AM 72.0 °F 55.0 °F 55% 29.87 in 10.0 mi West 8.1 mph - N/A   Scattered Clouds
12:53 PM 73.9 °F 52.0 °F 46% 29.86 in 10.0 mi West 5.8 mph - N/A   Scattered Clouds
1:53 PM 73.9 °F 52.0 °F 46% 29.86 in 10.0 mi West 11.5 mph - N/A   Mostly Cloudy
2:53 PM 72.0 °F 52.0 °F 49% 29.86 in 10.0 mi NW 5.8 mph - N/A   Partly Cloudy
3:53 PM 72.0 °F 54.0 °F 53% 29.86 in 10.0 mi West 5.8 mph - N/A   Partly Cloudy
4:53 PM 71.1 °F 54.0 °F 55% 29.85 in 10.0 mi NNW 6.9 mph - N/A   Clear
5:53 PM 68.0 °F 53.1 °F 59% 29.84 in 10.0 mi NW 5.8 mph - N/A   Clear
6:53 PM 66.9 °F 52.0 °F 59% 29.85 in 10.0 mi NW 3.5 mph - N/A   Clear
7:53 PM 62.1 °F 55.0 °F 78% 29.86 in 10.0 mi Calm Calm - N/A   Clear
8:53 PM 59.0 °F 55.9 °F 90% 29.87 in 10.0 mi Calm Calm - N/A   Clear
9:53 PM 57.0 °F 55.0 °F 93% 29.86 in 10.0 mi Calm Calm - N/A   Clear
10:53 PM 57.0 °F 54.0 °F 89% 29.86 in 10.0 mi Calm Calm - N/A   Clear
11:53 PM 55.9 °F 54.0 °F 93% 29.86 in 10.0 mi Calm Calm - N/A   Clear